{"data":{"norad_id":46479,"epoch":"2026-09-20T05:05:18.117600Z","epoch_age_seconds":98240,"freshness":"FRESH","line1":"1 46479U 20067B   26263.21201525  .00000370  00000+0  60173-4 0  9992","line2":"2 46479  97.8826 340.3996 0000872  70.9208 289.2097 14.76566268322284","mean_motion":14.76566268,"eccentricity":8.72e-5,"inclination_deg":97.8826,"raan_deg":340.3996,"arg_perigee_deg":70.9208,"mean_anomaly_deg":289.2097,"bstar":6.0173e-5,"rev_number":32228,"period_min":97.523560656067,"perigee_km":639.57175918734,"apogee_km":640.79575432732,"semimajor_km":7018.3207567573,"source":"CELESTRAK","updated_at":"2026-09-20T09:00:14.759006Z"}}